Previsão horária em Alihe

Hoje, 19 Junho, Sábado

Tempo Temperatura Precipitação Vento Pressão Humidade
00:00 +13°C° 3.1 mm 2 m/s 700 mmHg 99%
01:00 +12°C° 3.1 mm 3 m/s 700 mmHg 98%
02:00 +12°C° 0 mm 4 m/s 700 mmHg 98%
03:00 +11°C° 0.9 mm 4 m/s 700 mmHg 98%
04:00 +11°C° 0.9 mm 4 m/s 701 mmHg 98%
05:00 +10°C° 0.9 mm 5 m/s 701 mmHg 98%
06:00 +11°C° 1.3 mm 4 m/s 702 mmHg 98%
07:00 +10°C° 1.3 mm 4 m/s 702 mmHg 98%
08:00 +10°C° 0 mm 3 m/s 703 mmHg 98%
09:00 +11°C° 0.3 mm 3 m/s 703 mmHg 98%
10:00 +11°C° 0.3 mm 3 m/s 704 mmHg 98%
11:00 +13°C° 0.3 mm 2 m/s 704 mmHg 98%
12:00 +13°C° 0.3 mm 2 m/s 705 mmHg 98%
13:00 +13°C° 0.3 mm 2 m/s 705 mmHg 98%
14:00 +14°C° 0 mm 2 m/s 705 mmHg 98%
15:00 +14°C° 0.3 mm 2 m/s 706 mmHg 97%
16:00 +15°C° 0.3 mm 2 m/s 706 mmHg 96%
17:00 +15°C° 0.3 mm 2 m/s 706 mmHg 95%
18:00 +14°C° 0.2 mm 2 m/s 706 mmHg 95%
19:00 +14°C° 0.2 mm 2 m/s 707 mmHg 96%
20:00 +13°C° 0.2 mm 2 m/s 707 mmHg 97%
21:00 +13°C° 0.1 mm 2 m/s 707 mmHg 97%
22:00 +12°C° 0.1 mm 2 m/s 708 mmHg 98%
23:00 +12°C° 0.1 mm 1 m/s 708 mmHg 98%

Amanhã, 20 Junho, Domingo

Tempo Temperatura Precipitação Vento Pressão Humidade
00:00 +12°C° 0 mm 2 m/s 708 mmHg 98%
01:00 +13°C° 0 mm 2 m/s 708 mmHg 98%
02:00 +13°C° 0 mm 2 m/s 709 mmHg 98%
03:00 +13°C° 0.1 mm 2 m/s 709 mmHg 98%
04:00 +13°C° 0.1 mm 2 m/s 710 mmHg 98%
05:00 +14°C° 0.1 mm 2 m/s 710 mmHg 98%
06:00 +14°C° 0.1 mm 2 m/s 710 mmHg 97%
07:00 +13°C° 0.1 mm 3 m/s 711 mmHg 97%
08:00 +13°C° 0.1 mm 3 m/s 711 mmHg 97%
09:00 +14°C° 0.1 mm 3 m/s 711 mmHg 89%
10:00 +17°C° 0.1 mm 3 m/s 712 mmHg 81%
11:00 +18°C° 0.1 mm 3 m/s 712 mmHg 73%
12:00 +19°C° 0.7 mm 3 m/s 712 mmHg 76%
13:00 +19°C° 0.7 mm 3 m/s 712 mmHg 79%
14:00 +19°C° 0.7 mm 3 m/s 712 mmHg 82%
15:00 +18°C° 0.4 mm 3 m/s 712 mmHg 84%
16:00 +18°C° 0.4 mm 2 m/s 712 mmHg 85%
17:00 +18°C° 0.4 mm 2 m/s 712 mmHg 86%
18:00 +17°C° 0.2 mm 2 m/s 712 mmHg 88%
19:00 +16°C° 0.2 mm 1 m/s 713 mmHg 89%
20:00 +15°C° 0.2 mm 1 m/s 713 mmHg 91%
21:00 +14°C° 0 mm 1 m/s 713 mmHg 92%
22:00 +13°C° 0 mm 1 m/s 713 mmHg 93%
23:00 +13°C° 0 mm 1 m/s 713 mmHg 94%

Depois de amanhã, 21 Junho, Segunda-feira

Tempo Temperatura Precipitação Vento Pressão Humidade
00:00 +12°C° 0 mm 1 m/s 713 mmHg 95%
01:00 +12°C° 0 mm 1 m/s 714 mmHg 95%
02:00 +12°C° 0 mm 1 m/s 714 mmHg 95%
03:00 +12°C° 0 mm 1 m/s 714 mmHg 95%
04:00 +12°C° 0 mm 1 m/s 714 mmHg 95%
05:00 +13°C° 0 mm 1 m/s 714 mmHg 94%
06:00 +15°C° 0 mm 1 m/s 715 mmHg 85%
07:00 +19°C° 0 mm 1 m/s 715 mmHg 76%
08:00 +21°C° 0 mm 1 m/s 715 mmHg 67%
09:00 +23°C° 0 mm 1 m/s 715 mmHg 58%
10:00 +23°C° 0 mm 0 m/s 715 mmHg 48%
11:00 +26°C° 0 mm 0 m/s 715 mmHg 39%
12:00 +24°C° 0 mm 0 m/s 714 mmHg 45%
13:00 +23°C° 0 mm 0 m/s 714 mmHg 51%
14:00 +22°C° 0 mm 0 m/s 714 mmHg 57%
15:00 +24°C° 0 mm 1 m/s 714 mmHg 54%
16:00 +24°C° 0 mm 1 m/s 713 mmHg 52%
17:00 +25°C° 0 mm 2 m/s 713 mmHg 49%
18:00 +23°C° 0 mm 1 m/s 713 mmHg 56%
19:00 +21°C° 0 mm 1 m/s 713 mmHg 63%
20:00 +19°C° 0 mm 1 m/s 713 mmHg 69%
21:00 +19°C° 0 mm 1 m/s 713 mmHg 70%
22:00 +18°C° 0 mm 1 m/s 713 mmHg 72%
23:00 +16°C° 0 mm 1 m/s 713 mmHg 73%

22 Junho, Terça-feira

Tempo Temperatura Precipitação Vento Pressão Humidade
00:00 +15°C° 0 mm 1 m/s 713 mmHg 76%
01:00 +14°C° 0 mm 1 m/s 713 mmHg 79%
02:00 +14°C° 0 mm 1 m/s 713 mmHg 83%
03:00 +14°C° 0 mm 1 m/s 713 mmHg 82%
04:00 +15°C° 0 mm 1 m/s 713 mmHg 81%
05:00 +15°C° 0 mm 1 m/s 713 mmHg 80%
06:00 +18°C° 0 mm 1 m/s 714 mmHg 74%
07:00 +20°C° 0 mm 1 m/s 714 mmHg 67%
08:00 +22°C° 0 mm 1 m/s 714 mmHg 60%
09:00 +23°C° 0 mm 1 m/s 714 mmHg 55%
10:00 +24°C° 0 mm 1 m/s 714 mmHg 50%
11:00 +26°C° 0 mm 1 m/s 714 mmHg 45%
12:00 +27°C° 0 mm 1 m/s 714 mmHg 41%
13:00 +28°C° 0 mm 1 m/s 714 mmHg 38%
14:00 +28°C° 0 mm 1 m/s 713 mmHg 35%
15:00 +27°C° 0 mm 1 m/s 713 mmHg 40%
16:00 +26°C° 0 mm 1 m/s 713 mmHg 45%
17:00 +25°C° 0 mm 1 m/s 713 mmHg 50%
18:00 +24°C° 0 mm 1 m/s 713 mmHg 55%
19:00 +22°C° 0 mm 1 m/s 713 mmHg 59%
20:00 +21°C° 0 mm 1 m/s 713 mmHg 64%
21:00 +20°C° 0 mm 1 m/s 713 mmHg 66%
22:00 +19°C° 0 mm 1 m/s 713 mmHg 68%
23:00 +18°C° 0 mm 1 m/s 713 mmHg 70%

23 Junho, Quarta-feira

Tempo Temperatura Precipitação Vento Pressão Humidade
00:00 +16°C° 0 mm 1 m/s 713 mmHg 74%
01:00 +16°C° 0 mm 1 m/s 713 mmHg 77%
02:00 +15°C° 0 mm 1 m/s 713 mmHg 80%
03:00 +15°C° 0 mm 1 m/s 714 mmHg 79%
04:00 +16°C° 0 mm 1 m/s 714 mmHg 79%
05:00 +16°C° 0 mm 1 m/s 714 mmHg 78%
06:00 +20°C° 0 mm 1 m/s 714 mmHg 68%
07:00 +23°C° 0 mm 1 m/s 714 mmHg 58%
08:00 +26°C° 0 mm 1 m/s 714 mmHg 48%
09:00 +27°C° 0 mm 1 m/s 714 mmHg 42%
10:00 +29°C° 0 mm 1 m/s 714 mmHg 36%
11:00 +31°C° 0 mm 1 m/s 714 mmHg 30%
12:00 +31°C° 0 mm 1 m/s 714 mmHg 30%
13:00 +31°C° 0 mm 1 m/s 714 mmHg 29%
14:00 +31°C° 0 mm 1 m/s 714 mmHg 29%
15:00 +29°C° 0 mm 1 m/s 714 mmHg 37%
16:00 +27°C° 0 mm 1 m/s 714 mmHg 46%
17:00 +25°C° 0 mm 1 m/s 713 mmHg 55%
18:00 +24°C° 0 mm 1 m/s 714 mmHg 60%
19:00 +22°C° 0 mm 1 m/s 714 mmHg 65%
20:00 +19°C° 0 mm 0 m/s 714 mmHg 69%
21:00 +18°C° 0 mm 0 m/s 714 mmHg 73%
22:00 +17°C° 0 mm 0 m/s 714 mmHg 76%
23:00 +16°C° 0 mm 0 m/s 714 mmHg 79%

24 Junho, Quinta-feira

Tempo Temperatura Precipitação Vento Pressão Humidade
00:00 +16°C° 0 mm 0 m/s 714 mmHg 82%
01:00 +16°C° 0 mm 1 m/s 714 mmHg 85%
02:00 +15°C° 0 mm 1 m/s 714 mmHg 87%
03:00 +16°C° 0 mm 1 m/s 714 mmHg 86%
04:00 +16°C° 0 mm 1 m/s 714 mmHg 85%
05:00 +18°C° 0 mm 1 m/s 714 mmHg 85%
06:00 +20°C° 0 mm 1 m/s 714 mmHg 75%
07:00 +23°C° 0 mm 1 m/s 715 mmHg 64%
08:00 +26°C° 0 mm 1 m/s 715 mmHg 54%
09:00 +27°C° 0 mm 1 m/s 715 mmHg 50%
10:00 +29°C° 0 mm 1 m/s 715 mmHg 45%
11:00 +31°C° 0 mm 1 m/s 715 mmHg 40%
12:00 +30°C° 0 mm 1 m/s 714 mmHg 44%
13:00 +29°C° 0 mm 1 m/s 714 mmHg 48%
14:00 +28°C° 0 mm 1 m/s 713 mmHg 52%
15:00 +26°C° 1.4 mm 1 m/s 714 mmHg 64%
16:00 +23°C° 1.4 mm 2 m/s 714 mmHg 75%
17:00 +20°C° 1.4 mm 2 m/s 714 mmHg 87%
18:00 +19°C° 1.8 mm 2 m/s 714 mmHg 90%
19:00 +18°C° 1.8 mm 2 m/s 714 mmHg 94%
20:00 +18°C° 1.8 mm 1 m/s 714 mmHg 97%
21:00 +18°C° 0.2 mm 1 m/s 714 mmHg 97%
22:00 +16°C° 0.2 mm 1 m/s 715 mmHg 96%
23:00 +15°C° 0.2 mm 0 m/s 715 mmHg 95%
Mostrar mais